Flag for U.S.A. Weather past 2 weeks in Leesburg, Virginia, U.S.A.

Now
79 °F

Partly cloudy.


Feels Like: 82 °F
Forecast: 71 / 88 °F
Wind: 7 mph from South

Location: Leesburg / Godfrey

Current Time: Aug 30, 2014 at 10:23:58 PM

Latest Report: Aug 30, 2014 at 9:55 PM


Visibility: 10 mi

Pressure: 30.14 "Hg

Humidity: 84%

Dew point: 73 °F

Location of LeesburgLocation

Historic Weather in Leesburg — Graph

°F

Leesburg temperature yesterday

Maximum temperature yesterday: 81 °F (at 2:55 PM)
Minimum temperature yesterday: 55 °F (at 5:55 AM)
Average temperature yesterday: 68 °F

Past Weeks' High & Low Weather Summary

 TemperatureHumidityPressure
High88 °F (Aug 17, 4:35 PM)100% (Aug 16, 4:15 AM)30.24 "Hg (Aug 16, 4:15 AM)
Low54 °F (Aug 16, 5:55 AM)37% (Aug 16, 12:55 PM)29.83 "Hg (Aug 18, 5:15 PM)
Average73 °F80%30.04 "Hg
* Reported Aug 15 9:15 PM — Aug 30 9:15 PM, Leesburg, Weather by CustomWeather, © 2014

Note: Actual official high and low records may vary slightly from our data, if they occured in-between our weather recording intervals... More about our weather records

Advertising

Leesburg weather history for previous 24 hours

 ConditionsComfort  
Time TempWeatherWind HumidityBarometerVisibility
9:15 PM
Aug 30
79 °FPassing clouds.6 mph84%30.14 "Hg10 mi
8:55 PM79 °FPassing clouds.5 mph84%30.14 "Hg10 mi
8:15 PM79 °FPartly sunny.6 mph84%30.13 "Hg10 mi
7:55 PM79 °FScattered clouds.6 mph84%30.12 "Hg10 mi
7:35 PM81 °FPartly sunny.5 mph79%30.12 "Hg10 mi
7:15 PM81 °FOvercast.5 mph79%30.12 "Hg10 mi
6:55 PM81 °FMore clouds than sun.5 mph79%30.12 "Hg10 mi
6:35 PM81 °FMostly cloudy.8 mph79%30.13 "Hg10 mi
6:15 PM82 °FMore clouds than sun.8 mph74%30.12 "Hg10 mi
5:55 PM82 °FMore clouds than sun.7 mph74%30.12 "Hg10 mi
5:35 PM82 °FBroken clouds.8 mph74%30.13 "Hg10 mi
5:15 PM82 °FMore clouds than sun.9 mph74%30.14 "Hg10 mi
4:55 PM82 °FMore clouds than sun.8 mph74%30.14 "Hg10 mi
4:35 PM82 °FOvercast.12 mph74%30.14 "Hg10 mi
4:15 PM82 °FMore clouds than sun.10 mph70%30.15 "Hg10 mi
3:55 PM82 °FMore clouds than sun.12 mph70%30.15 "Hg10 mi
3:35 PM81 °FOvercast.9 mph74%30.16 "Hg10 mi
3:15 PM81 °FOvercast.7 mph74%30.16 "Hg10 mi
2:55 PM81 °FOvercast.8 mph74%30.18 "Hg10 mi
2:15 PM81 °FOvercast.10 mph74%30.19 "Hg10 mi
1:15 PM79 °FOvercast.10 mph74%30.21 "Hg10 mi
12:55 PM79 °FOvercast.13 mph74%30.22 "Hg10 mi
12:35 PM79 °FOvercast.10 mph74%30.22 "Hg10 mi
12:15 PM77 °FOvercast.10 mph74%30.23 "Hg10 mi
11:55 AM77 °FOvercast.13 mph79%30.23 "Hg10 mi
11:35 AM77 °FOvercast.12 mph74%30.23 "Hg10 mi
11:15 AM75 °FOvercast.6 mph78%30.24 "Hg10 mi
10:55 AM73 °FOvercast.8 mph83%30.24 "Hg10 mi
10:35 AM73 °FOvercast.9 mph83%30.24 "Hg10 mi
10:15 AM72 °FOvercast.8 mph88%30.24 "Hg10 mi
9:55 AM72 °FOvercast.6 mph88%30.24 "Hg10 mi
9:15 AM70 °FOvercast.3 mph94%30.24 "Hg10 mi
8:55 AM70 °FOvercast.3 mph94%30.24 "Hg10 mi
8:15 AM70 °FOvercast.3 mph88%30.24 "Hg10 mi
7:55 AM70 °FOvercast.5 mph88%30.24 "Hg10 mi
7:35 AM68 °FOvercast.3 mph88%30.24 "Hg10 mi
7:15 AM68 °FOvercast.3 mph88%30.24 "Hg10 mi
6:55 AM68 °FOvercast.No wind88%30.24 "Hg10 mi
6:35 AM68 °FOvercast.3 mph88%30.24 "Hg10 mi
6:15 AM68 °FOvercast.5 mph88%30.23 "Hg10 mi
5:55 AM68 °FOvercast.3 mph88%30.23 "Hg10 mi
5:35 AM68 °FOvercast.No wind88%30.23 "Hg10 mi
5:15 AM68 °FMostly cloudy.No wind88%30.22 "Hg10 mi
4:55 AM68 °FMostly cloudy.5 mph83%30.21 "Hg10 mi
4:35 AM68 °FOvercast.3 mph83%30.22 "Hg10 mi
4:15 AM68 °FMostly cloudy.No wind83%30.22 "Hg10 mi
3:55 AM68 °FMostly cloudy.No wind83%30.22 "Hg10 mi
3:35 AM68 °FMostly cloudy.No wind83%30.23 "Hg10 mi
3:15 AM66 °FOvercast.No wind88%30.23 "Hg10 mi
2:55 AM64 °FOvercast.No wind94%30.23 "Hg10 mi
2:35 AM66 °FOvercast.No wind88%30.23 "Hg10 mi
2:15 AM64 °FOvercast.No wind88%30.23 "Hg10 mi
1:55 AM66 °FOvercast.No wind83%30.23 "Hg10 mi
1:35 AM64 °FOvercast.No wind88%30.24 "Hg10 mi
1:15 AM64 °FOvercast.No wind88%30.24 "Hg10 mi
12:55 AM64 °FOvercast.No wind88%30.24 "Hg10 mi
12:35 AM64 °FOvercast.No wind88%30.23 "Hg10 mi
12:15 AM64 °FMostly cloudy.No wind88%30.23 "Hg10 mi
11:55 PM
Aug 29
64 °FPassing clouds.No wind88%30.23 "Hg10 mi
11:35 PM64 °FPassing clouds.No wind83%30.23 "Hg10 mi
11:15 PM64 °FClear.No wind83%30.23 "Hg10 mi
10:55 PM64 °FClear.No wind83%30.22 "Hg10 mi
10:35 PM66 °FClear.No wind78%30.22 "Hg10 mi
10:15 PM68 °FClear.No wind73%30.22 "Hg10 mi
Weather by CustomWeather, © 2014

See weather overviewHow to use our weather pages